Weather History for Iliamna, AK

Change the Weather History Date:

Friday, February 7, 2014

  Actual Average Record
Temperature  
Mean Temperature 28 °F -  
Max Temperature 37 °F 24 °F 47 °F (1947)
Min Temperature 19 °F 13 °F -31 °F (1953)
Degree Days  
Heating Degree Days 38    
Moisture  
Dew Point 11 °F    
Average Humidity 48    
Maximum Humidity 69    
Minimum Humidity 25    
Precipitation  
Precipitation 0.00 in - - ()
Sea Level Pressure  
Sea Level Pressure 29.70 in    
Wind  
Wind Speed 20 mph (North)    
Max Wind Speed 30 mph    
Max Gust Speed 46 mph    
Visibility 10 miles    
Events      
Averages and records for this station are not official NWS values.
T = Trace of Precipitation, MM = Missing Value Source: NWS Daily Summary

Daily Weather History Graph

Daily Weather History Graph

Search for Another Location

Airport:

Trip Planner

Search our weather history database for the weather conditions in past years. The results will help you decide how hot, cold, wet, or windy it might be!

Date:

Astronomy

Feb. 07, 2014 Rise Set
Actual Time 9:16 AM AKST 5:51 PM AKST
Civil Twilight 8:31 AM AKST 6:36 PM AKST
Nautical Twilight 7:42 AM AKST 7:26 PM AKST
Astronomical Twilight 6:54 AM AKST 8:14 PM AKST
Moon 11:51 AM AKST (2/7) 3:59 AM AKST (2/7)
Length of Visible Light 10h 05m
Length of Day
8h 34m
First Quarter, 60% of the Moon is Illuminated
Feb 7
First Quarter
Feb 14
Full
Feb 22
Last Quarter
Feb 28
New
Mar 8
First Quarter

Hourly Weather History & Observations

Time (AKST) Temp. Windchill Dew Point Humidity Pressure Visibility Wind Dir Wind Speed Gust Speed Precip Events Conditions
12:53 AM 23.0 °F 5.4 °F 10.9 °F 60% 29.78 in 10.0 mi NNW 29.9 mph 46.0 mph N/A   Clear
1:53 AM 23.0 °F 6.6 °F 10.0 °F 58% 29.74 in 10.0 mi North 25.3 mph 41.4 mph N/A   Scattered Clouds
3:53 AM 21.0 °F 4.3 °F 6.1 °F 53% 29.69 in 10.0 mi North 24.2 mph 34.5 mph N/A   Partly Cloudy
4:53 AM 21.0 °F 3.6 °F 3.9 °F 48% 29.69 in 10.0 mi North 26.5 mph 40.3 mph N/A   Clear
5:53 AM 21.0 °F 4.6 °F 3.0 °F 46% 29.69 in 10.0 mi North 23.0 mph 32.2 mph N/A   Clear
6:53 AM 21.0 °F 5.4 °F 1.9 °F 44% 29.67 in 10.0 mi North 20.7 mph 31.1 mph N/A   Clear
7:53 AM 21.0 °F 6.6 °F 1.9 °F 44% 29.65 in 10.0 mi NNW 17.3 mph 27.6 mph N/A   Clear
8:53 AM 21.9 °F 5.5 °F 1.0 °F 40% 29.63 in 10.0 mi North 24.2 mph 34.5 mph N/A   Mostly Cloudy
9:53 AM 23.0 °F 8.0 °F 1.0 °F 39% 29.61 in 10.0 mi North 20.7 mph 29.9 mph N/A   Clear
10:53 AM 25.0 °F 9.9 °F 1.0 °F 36% 29.59 in 10.0 mi North 23.0 mph 33.4 mph N/A   Clear
11:53 AM 27.0 °F 11.9 °F 1.0 °F 33% 29.58 in 10.0 mi North 25.3 mph 36.8 mph N/A   Scattered Clouds
12:53 PM 32.0 °F 18.4 °F 3.0 °F 29% 29.57 in 10.0 mi North 26.5 mph 38.0 mph N/A   Clear
1:53 PM 34.0 °F 22.1 °F 8.1 °F 34% 29.59 in 10.0 mi North 21.9 mph 35.7 mph N/A   Overcast
2:13 PM 35.6 °F 27.5 °F 10.4 °F 35% 29.61 in 10.0 mi East 11.5 mph 20.7 mph N/A   Overcast
2:53 PM 33.1 °F 26.9 °F 17.1 °F 52% 29.63 in 10.0 mi SE 6.9 mph - N/A   Overcast
3:53 PM 30.9 °F 25.2 °F 18.0 °F 59% 29.66 in 10.0 mi SSW 5.8 mph - N/A   Mostly Cloudy
4:53 PM 30.9 °F 24.3 °F 18.0 °F 59% 29.68 in 10.0 mi SW 6.9 mph - N/A   Mostly Cloudy
5:53 PM 30.0 °F 25.2 °F 21.0 °F 69% 29.73 in 10.0 mi SSW 4.6 mph - N/A   Mostly Cloudy
6:53 PM 30.0 °F 24.1 °F 19.9 °F 66% 29.76 in 10.0 mi NW 5.8 mph - N/A   Overcast
7:53 PM 35.1 °F 26.9 °F 21.0 °F 57% 29.78 in 10.0 mi NE 11.5 mph - N/A   Overcast
8:53 PM 35.1 °F 26.9 °F 23.0 °F 61% 29.83 in 10.0 mi NE 11.5 mph - N/A   Mostly Cloudy
9:53 PM 34.0 °F 28.0 °F 21.0 °F 59% 29.86 in 10.0 mi NNE 6.9 mph - N/A   Scattered Clouds
10:53 PM 36.0 °F 28.0 °F 21.9 °F 57% 29.90 in 10.0 mi NNE 11.5 mph - N/A   Scattered Clouds
11:53 PM 37.9 °F 30.0 °F 19.9 °F 48% 29.93 in 10.0 mi NE 12.7 mph - N/A   Scattered Clouds